Wind_Speed
41 40 38 35 32 29 27 27 28 29 29 28 29 30 30 29 29 29 29 29 29 29 29 29 29 29 30 30 30 30 30 31 33 34 35 36 36 36
37 35 33 30 27 25 25 26 28 29 29 28 27 28 27 27 27 27 28 28 29 30 30 30 30 31 31 31 31 32 32 32 32 34 35 36 37 37
30 29 28 26 24 23 23 24 24 25 25 25 25 24 25 26 26 26 27 27 29 29 30 31 31 32 33 33 34 34 34 34 34 35 35 36 37 38
26 26 25 24 23 22 22 23 23 22 21 22 23 23 23 24 25 26 27 28 29 31 32 32 33 34 35 36 37 37 37 37 37 37 37 37 38 39
25 24 24 23 23 21 20 20 19 19 19 19 21 22 22 23 24 26 27 28 30 32 33 34 35 37 38 38 39 40 40 40 41 41 40 40 40 40
25 25 24 23 21 18 17 17 16 16 17 18 19 20 22 23 25 27 28 30 32 33 35 36 37 38 39 40 40 41 42 42 42 43 43 42 42 42
24 22 21 19 17 16 15 15 15 15 17 18 20 22 23 25 26 28 30 32 33 35 37 38 39 40 40 41 41 41 42 42 43 43 44 43 43 43
19 18 17 15 15 15 15 15 15 16 18 19 21 22 24 25 26 28 29 30 32 33 35 36 38 39 40 41 41 41 41 41 42 42 43 42 42 42
15 14 13 14 14 14 14 14 15 16 17 18 19 20 21 22 24 25 27 28 30 31 33 34 35 36 37 38 39 39 39 40 40 40 40 40 40 40
11 10 10 11 11 11 12 12 13 14 15 15 16 17 19 20 21 23 25 27 29 31 32 34 35 36 36 36 37 37 37 37 38 37 37 38 37 38
8 8 8 8 8 9 9 10 11 11 12 12 13 15 17 20 22 24 26 28 30 32 33 34 35 36 36 36 35 35 35 35 35 35 34 34 34 34
7 7 7 7 7 7 7 8 8 9 10 11 13 15 18 21 23 25 27 29 31 32 33 34 34 34 34 34 33 33 33 33 33 32 32 31 30 30
6 6 6 6 6 6 6 6 7 8 10 12 14 16 18 20 22 24 25 27 28 29 30 30 30 30 30 30 30 30 30 29 29 29 27 26 26 26
7 7 7 7 6 6 6 6 7 8 10 12 13 15 16 18 20 22 23 24 25 25 26 26 26 26 25 25 26 26 26 26 25 25 24 23 22 21
8 7 7 7 7 6 6 6 7 8 9 11 12 14 16 19 21 22 23 23 24 24 23 23 23 22 21 22 23 23 24 23 23 22 21 21 19 19
9 8 8 7 7 7 6 6 6 7 9 10 12 15 17 19 21 23 24 24 24 23 23 22 21 21 20 20 20 21 22 23 23 22 22 21 19 17
9 9 9 8 8 7 6 6 5 6 8 10 12 15 18 20 22 24 25 25 25 24 23 23 22 21 20 20 19 19 20 21 23 24 24 22 20 19
10 10 9 9 9 8 6 5 5 6 7 9 12 15 18 20 23 24 26 26 26 26 25 24 23 21 20 19 19 19 19 20 21 23 25 25 24 22
10 10 10 10 9 8 6 5 5 5 6 8 11 14 17 20 22 25 27 28 29 28 27 26 24 22 21 19 19 19 19 19 20 22 24 26 28 28
11 11 11 10 10 9 7 7 6 6 6 8 10 13 16 19 21 24 27 29 30 31 30 28 26 23 21 19 18 18 18 19 19 20 22 25 29 32
12 12 12 12 11 10 10 9 9 8 8 8 9 11 14 18 20 23 26 29 31 32 32 31 29 26 23 20 19 18 18 18 19 20 21 23 26 30
14 14 14 13 13 13 13 12 12 11 10 10 10 12 14 17 20 23 26 28 30 31 32 32 31 29 26 23 21 19 18 18 19 20 21 22 25 28
15 15 15 15 15 15 15 14 14 13 13 13 14 14 16 18 21 23 26 28 30 32 33 33 33 31 29 26 23 21 20 19 19 19 21 22 24 26
Wind_Direction
275 276 276 277 276 272 265 260 256 253 248 241 237 235 235 236 239 243 245 248 249 250 251 252 254 256 257 258 260 261 262 263 264 263 262 261 259 259
271 272 272 273 271 264 257 253 251 246 242 238 236 235 235 236 239 244 247 250 251 252 254 255 256 257 258 259 259 261 263 264 264 264 262 261 259 258
264 265 266 265 262 254 250 249 246 245 243 241 238 238 240 241 244 247 250 253 255 257 258 258 258 259 260 261 262 263 264 264 265 265 264 262 259 257
256 257 256 252 249 245 246 248 248 246 242 241 243 244 247 249 253 255 258 259 260 262 262 262 262 263 263 263 264 264 265 265 265 265 264 263 260 257
245 244 242 241 243 246 248 249 249 247 245 247 249 252 255 257 258 260 261 262 263 263 264 264 265 265 266 266 266 266 265 265 265 265 265 264 262 258
234 234 236 237 240 244 246 248 251 253 256 257 257 259 260 261 262 264 265 266 267 267 268 268 268 268 268 268 267 266 265 265 265 265 264 264 262 259
225 229 231 233 238 241 246 251 254 258 260 262 263 264 265 267 268 269 270 270 271 271 271 270 270 270 269 269 268 267 266 265 265 265 264 264 263 260
224 224 229 237 242 246 253 258 260 262 264 266 268 270 271 272 273 274 275 275 276 275 275 274 273 272 271 270 268 267 266 266 265 264 264 264 263 261
225 228 233 239 246 251 257 262 265 265 267 270 272 274 276 278 279 280 281 282 281 281 279 278 276 274 273 271 270 269 267 266 265 265 265 264 263 261
235 238 243 247 251 256 261 264 266 269 271 273 276 280 282 284 286 288 288 288 287 286 283 281 279 277 275 273 271 269 267 266 265 265 265 265 264 260
233 237 243 246 250 255 259 261 265 268 272 278 284 289 293 295 296 296 295 293 292 289 287 284 281 279 276 274 271 269 267 266 264 264 265 264 264 261
222 228 233 238 242 248 253 258 264 273 282 290 296 300 303 305 305 304 303 302 300 297 293 289 285 281 277 274 271 269 267 265 264 263 263 262 262 261
210 217 221 226 231 239 247 260 275 286 296 302 307 311 313 314 314 314 313 312 309 305 300 296 292 287 281 276 272 269 267 265 264 261 259 258 258 258
201 207 214 221 228 237 253 271 287 300 307 313 317 322 326 328 328 327 326 324 320 314 308 303 298 293 288 281 275 270 266 262 260 259 254 253 253 251
203 209 217 225 233 246 261 277 292 305 316 324 330 337 340 341 342 341 339 335 329 322 315 309 304 300 293 288 281 273 266 260 256 253 248 247 248 245
214 220 227 234 242 251 263 277 292 314 329 338 345 350 352 352 351 350 347 343 337 329 320 313 308 305 300 295 288 279 269 260 255 249 244 239 238 236
222 229 236 241 247 254 262 275 303 329 342 349 356 1 1 0 358 357 355 351 346 338 329 320 313 308 304 300 294 287 276 265 258 251 246 240 237 232
230 234 238 243 248 252 257 274 308 330 342 353 1 6 6 4 3 2 1 358 354 347 339 330 322 314 306 301 297 291 283 272 263 257 250 243 236 231
232 234 238 244 247 249 252 267 289 312 334 349 360 5 6 6 6 5 4 3 360 355 348 340 332 323 314 306 298 293 287 279 269 261 255 248 242 236
235 237 240 243 246 247 251 257 267 287 312 336 351 359 1 2 3 4 4 3 2 359 356 351 343 335 325 316 306 297 290 284 278 269 260 253 248 244
240 241 243 243 245 244 247 252 258 273 291 316 335 346 352 354 356 357 358 359 359 359 358 356 352 345 336 327 316 306 296 287 281 276 268 261 254 250
244 245 246 246 245 243 243 248 255 267 279 297 313 325 335 341 345 348 351 353 353 354 356 356 355 352 345 337 326 315 305 295 286 278 272 267 261 256
245 246 247 249 248 246 246 248 255 265 275 287 299 310 319 328 334 338 342 345 347 349 351 353 353 352 350 344 335 324 315 306 296 287 278 272 267 262
Height
5740 5741 5741 5741 5741 5741 5741 5743 5745 5747 5748 5749 5751 5753 5755 5759 5762 5764 5767 5769 5771 5773 5774 5776 5777 5778 5780 5780 5781 5782 5782 5783 5783 5784 5784 5785 5785 5786
5730 5731 5732 5732 5732 5733 5735 5736 5738 5740 5741 5742 5744 5746 5748 5751 5754 5757 5759 5761 5763 5765 5766 5767 5768 5769 5771 5771 5772 5772 5773 5773 5773 5773 5773 5774 5774 5775
5720 5722 5723 5725 5726 5727 5728 5730 5732 5734 5735 5736 5737 5739 5742 5744 5747 5749 5751 5753 5754 5756 5757 5758 5759 5760 5761 5761 5762 5762 5762 5762 5762 5762 5762 5762 5763 5764
5713 5715 5716 5718 5720 5721 5723 5725 5726 5727 5729 5730 5732 5734 5736 5738 5740 5742 5743 5745 5746 5747 5748 5748 5749 5750 5750 5751 5751 5751 5751 5751 5751 5751 5751 5751 5751 5752
5706 5708 5710 5712 5714 5716 5718 5720 5721 5722 5724 5725 5727 5729 5730 5732 5733 5735 5736 5736 5737 5738 5738 5738 5739 5739 5739 5739 5739 5739 5739 5739 5739 5738 5738 5738 5739 5739
5699 5701 5704 5706 5708 5711 5713 5714 5716 5717 5718 5720 5722 5723 5724 5725 5726 5727 5728 5728 5728 5728 5728 5728 5728 5728 5728 5727 5727 5726 5726 5726 5726 5726 5725 5725 5725 5726
5693 5696 5698 5701 5703 5705 5707 5709 5711 5712 5713 5715 5716 5717 5718 5719 5719 5719 5719 5719 5719 5718 5718 5717 5717 5716 5715 5715 5714 5713 5713 5712 5712 5712 5712 5711 5712 5712
5689 5691 5694 5696 5698 5700 5702 5704 5706 5707 5708 5709 5710 5711 5711 5712 5711 5711 5711 5710 5709 5709 5708 5706 5705 5704 5703 5702 5701 5700 5700 5699 5699 5699 5698 5698 5698 5698
5685 5687 5690 5692 5694 5696 5698 5699 5701 5702 5704 5704 5705 5705 5705 5704 5704 5703 5702 5701 5700 5698 5697 5695 5694 5692 5691 5689 5688 5688 5687 5687 5686 5686 5686 5685 5685 5685
5682 5684 5686 5688 5690 5692 5694 5695 5697 5698 5699 5699 5699 5699 5698 5697 5696 5695 5694 5692 5691 5689 5687 5685 5682 5680 5679 5677 5676 5675 5675 5675 5674 5674 5674 5673 5673 5673
5680 5682 5684 5685 5687 5689 5691 5692 5693 5694 5694 5694 5694 5693 5692 5691 5690 5688 5686 5684 5681 5679 5676 5673 5670 5668 5666 5665 5664 5663 5663 5663 5663 5663 5663 5663 5662 5662
5678 5680 5682 5683 5685 5686 5687 5688 5689 5690 5690 5690 5689 5689 5687 5685 5683 5680 5677 5674 5671 5668 5664 5661 5658 5656 5655 5653 5653 5652 5652 5652 5652 5653 5653 5653 5652 5652
5676 5678 5679 5681 5682 5684 5685 5685 5686 5686 5686 5686 5685 5683 5681 5679 5676 5673 5670 5666 5662 5658 5654 5651 5648 5645 5644 5643 5642 5642 5642 5642 5643 5643 5644 5644 5644 5644
5674 5676 5678 5679 5680 5681 5682 5683 5683 5683 5682 5682 5680 5679 5676 5674 5670 5667 5663 5659 5655 5650 5646 5643 5640 5638 5636 5634 5633 5633 5633 5634 5634 5635 5636 5637 5637 5638
5673 5675 5676 5677 5678 5679 5679 5680 5680 5680 5679 5678 5676 5674 5672 5668 5665 5661 5657 5653 5649 5645 5641 5637 5634 5632 5629 5628 5626 5625 5625 5626 5627 5628 5629 5630 5631 5632
5671 5673 5674 5675 5676 5676 5677 5677 5677 5677 5676 5674 5672 5670 5667 5664 5661 5657 5653 5649 5645 5640 5636 5632 5629 5626 5624 5622 5620 5618 5618 5619 5619 5621 5622 5624 5625 5627
5669 5670 5672 5672 5673 5674 5674 5674 5674 5673 5672 5671 5669 5666 5664 5661 5657 5654 5650 5645 5641 5636 5631 5627 5624 5621 5619 5616 5614 5613 5612 5612 5612 5614 5615 5617 5619 5621
5667 5668 5669 5669 5670 5671 5671 5671 5671 5670 5670 5668 5666 5664 5661 5658 5655 5651 5647 5643 5638 5633 5628 5623 5619 5616 5614 5611 5609 5607 5606 5606 5606 5607 5608 5610 5613 5615
5663 5665 5666 5666 5667 5667 5667 5668 5668 5668 5667 5665 5663 5661 5659 5656 5653 5649 5645 5640 5636 5630 5625 5620 5615 5611 5608 5606 5604 5602 5601 5600 5600 5601 5602 5603 5605 5607
5660 5661 5662 5662 5663 5663 5664 5665 5665 5665 5664 5663 5661 5659 5657 5654 5651 5647 5643 5639 5634 5629 5623 5617 5612 5607 5604 5601 5599 5597 5596 5594 5594 5594 5595 5596 5597 5600
5655 5656 5657 5658 5659 5660 5660 5661 5662 5662 5661 5660 5658 5656 5654 5652 5649 5645 5641 5637 5632 5627 5622 5616 5610 5605 5601 5597 5595 5592 5591 5589 5588 5588 5588 5589 5590 5592
5650 5652 5653 5654 5655 5656 5657 5658 5658 5658 5657 5656 5655 5653 5651 5649 5646 5642 5639 5635 5630 5625 5620 5614 5608 5603 5598 5594 5591 5588 5586 5584 5583 5582 5582 5582 5582 5583
5645 5647 5648 5649 5650 5651 5653 5653 5654 5654 5653 5652 5651 5649 5647 5645 5642 5639 5636 5632 5628 5623 5618 5612 5607 5601 5596 5592 5588 5584 5581 5579 5577 5576 5575 5574 5574 5574